sat.trackr.live / text

‹ back to catalog

STARLINK-31990

NORAD 60024 · 2024-111J

PAYLOAD ACTIVE UNKNOWN

§ Identity

Operator
Country
US
Launch date
2024-06-08
Launch site
AFETR
Launch vehicle
Mass (kg)
RCS (m²)

Purposes: comms

External: N2YO · Heavens-Above · Gunter

§ Orbital elements

Epoch: 2026-09-21T15:35:07.694304Z

Period
93.85 min
Inclination
53.1600°
Eccentricity
0.0001504
Mean motion
15.34387196 rev/d
Perigee alt
461.7 km
Apogee alt
463.8 km
Semi-major
6,840.9 km
B*
-6.0770e-7
RAAN
244.1502°
Arg perigee
89.7254°
Mean anomaly
270.3921°
Rev number
12,905

§ Raw data

STARLINK-319901 60024U 24111J   26264.64939461 -.00000397  00000+0 -60770-6 0  99992 60024  53.1600 244.1502 0001504  89.7254 270.3921 15.34387196129050

JSON: /api/v1/satellites/60024 · /tle

For live sub-satellite position, see the globe view (requires WebGL).

§ Visibility from observer

Set your observer location to see the next 7 days of passes ≥ 10°. The values pass through the URL so the page stays shareable.

No JS? Fill the form by hand. The geolocation button needs JavaScript.